| time (UTC) | temp F | wind direction | speed MPH | gust MPH | rain 1hr in | rain 24hr in | rain mn in | humidity % | barometer mb |
| 20260508202755 | 73 | 96 | 0.0 | 1.0 | 0.00 | 0.96 | 0.96 | 75 | 1010.6 |
| 20260508202253 | 73 | 262 | 4.0 | 5.0 | 0.00 | 0.96 | 0.96 | 74 | 1010.9 |
| 20260508201750 | 73 | 151 | 0.0 | 3.0 | 0.00 | 0.96 | 0.96 | 74 | 1011.3 |
| 20260508201247 | 73 | 262 | 0.0 | 2.0 | 0.00 | 0.96 | 0.96 | 74 | 1011.0 |
| 20260508200744 | 73 | 270 | 2.0 | 3.0 | 0.00 | 0.96 | 0.96 | 73 | 1011.2 |
| 20260508200240 | 74 | 283 | 2.0 | 6.0 | 0.00 | 0.96 | 0.96 | 73 | 1011.1 |
| 20260508195736 | 74 | 240 | 1.0 | 2.0 | 0.00 | 0.96 | 0.96 | 73 | 1011.1 |
| 20260508195233 | 75 | 184 | 2.0 | 2.0 | 0.00 | 0.96 | 0.96 | 73 | 1010.9 |
| 20260508194730 | 75 | 246 | 1.0 | 2.0 | 0.00 | 0.96 | 0.96 | 74 | 1011.0 |
| 20260508194226 | 75 | 276 | 0.0 | 3.0 | 0.00 | 0.96 | 0.96 | 73 | 1010.9 |
| 20260508193723 | 74 | 194 | 4.0 | 4.0 | 0.00 | 0.96 | 0.96 | 73 | 1010.9 |
| 20260508193220 | 74 | 198 | 1.0 | 5.0 | 0.00 | 0.96 | 0.96 | 74 | 1011.1 |
| 20260508192716 | 75 | 260 | 2.0 | 3.0 | 0.00 | 0.96 | 0.96 | 73 | 1010.8 |
| 20260508192214 | 75 | 251 | 2.0 | 4.0 | 0.00 | 0.96 | 0.96 | 74 | 1011.1 |
| 20260508191711 | 75 | 270 | 3.0 | 5.0 | 0.00 | 0.96 | 0.96 | 73 | 1011.1 |
| 20260508191208 | 75 | 250 | 4.0 | 4.0 | 0.00 | 0.96 | 0.96 | 73 | 1011.1 |
| 20260508190705 | 75 | 203 | 2.0 | 4.0 | 0.00 | 0.96 | 0.96 | 73 | 1011.2 |
| 20260508190201 | 74 | 192 | 1.0 | 5.0 | 0.00 | 0.96 | 0.96 | 74 | 1011.3 |
| 20260508185658 | 75 | 240 | 1.0 | 4.0 | 0.00 | 0.96 | 0.96 | 72 | 1011.3 |
| 20260508185155 | 75 | 98 | 4.0 | 4.0 | 0.00 | 0.96 | 0.96 | 73 | 1011.4 |
| 20260508184652 | 75 | 258 | 3.0 | 6.0 | 0.00 | 0.96 | 0.96 | 72 | 1011.3 |
| 20260508184150 | 76 | 263 | 1.0 | 6.0 | 0.00 | 0.96 | 0.96 | 71 | 1011.4 |
| 20260508183646 | 77 | 263 | 0.0 | 3.0 | 0.00 | 0.96 | 0.96 | 69 | 1011.4 |
| 20260508183142 | 76 | 180 | 0.0 | 2.0 | 0.00 | 0.96 | 0.96 | 71 | 1011.6 |
| 20260508182638 | 77 | 254 | 2.0 | 3.0 | 0.00 | 0.96 | 0.96 | 70 | 1011.3 |
| 20260508182135 | 77 | 220 | 2.0 | 2.0 | 0.00 | 0.96 | 0.96 | 71 | 1011.5 |
| 20260508181630 | 77 | 276 | 2.0 | 2.0 | 0.00 | 0.96 | 0.96 | 69 | 1011.7 |
| 20260508181128 | 76 | 244 | 3.0 | 3.0 | 0.00 | 0.96 | 0.96 | 71 | 1011.8 |
| 20260508180625 | 75 | 236 | 3.0 | 3.0 | 0.00 | 0.96 | 0.96 | 72 | 1011.9 |
| 20260508180121 | 76 | 248 | 2.0 | 4.0 | 0.00 | 0.96 | 0.96 | 71 | 1011.9 |
| 20260508175618 | 76 | 270 | 1.0 | 3.0 | 0.00 | 0.96 | 0.96 | 71 | 1012.0 |
| 20260508175115 | 76 | 218 | 3.0 | 3.0 | 0.00 | 0.96 | 0.96 | 72 | 1012.2 |
| 20260508174612 | 76 | 270 | 2.0 | 2.0 | 0.00 | 0.96 | 0.96 | 70 | 1012.0 |
| 20260508174109 | 75 | 320 | 0.0 | 4.0 | 0.00 | 0.96 | 0.96 | 71 | 1012.2 |
| 20260508173606 | 75 | 276 | 1.0 | 5.0 | 0.00 | 0.96 | 0.96 | 70 | 1012.5 |
| 20260508173102 | 75 | 190 | 2.0 | 2.0 | 0.00 | 0.96 | 0.96 | 71 | 1012.5 |
| 20260508172600 | 75 | 350 | 0.0 | 3.0 | 0.00 | 0.96 | 0.96 | 71 | 1012.4 |
| 20260508172056 | 75 | 280 | 3.0 | 4.0 | 0.00 | 0.96 | 0.96 | 68 | 1012.5 |
| 20260508171552 | 74 | 221 | 2.0 | 3.0 | 0.00 | 0.96 | 0.96 | 71 | 1012.4 |
| 20260508171049 | 74 | 261 | 0.0 | 2.0 | 0.00 | 0.96 | 0.96 | 69 | 1012.6 |
| 20260508170547 | 74 | 177 | 2.0 | 3.0 | 0.00 | 0.96 | 0.96 | 70 | 1012.5 |
| 20260508170044 | 73 | 270 | 3.0 | 3.0 | 0.00 | 0.96 | 0.96 | 69 | 1012.9 |
| 20260508165541 | 72 | 270 | 0.0 | 3.0 | 0.00 | 0.96 | 0.96 | 73 | 1012.9 |
| 20260508165037 | 72 | 270 | 0.0 | 3.0 | 0.00 | 0.96 | 0.96 | 73 | 1013.3 |
| 20260508164533 | 70 | 270 | 2.0 | 4.0 | 0.00 | 0.96 | 0.96 | 73 | 1013.1 |
| 20260508164031 | 70 | 234 | 0.0 | 4.0 | 0.00 | 0.96 | 0.96 | 76 | 1013.4 |
| 20260508163528 | 70 | 187 | 0.0 | 3.0 | 0.00 | 0.96 | 0.96 | 76 | 1013.5 |
| 20260508163025 | 71 | 270 | 0.0 | 2.0 | 0.00 | 0.96 | 0.96 | 73 | 1013.9 |
| 20260508162521 | 71 | 206 | 1.0 | 2.0 | 0.00 | 0.96 | 0.96 | 75 | 1013.7 |
| 20260508162019 | 70 | 90 | 2.0 | 2.0 | 0.00 | 0.96 | 0.96 | 79 | 1013.9 |
| 20260508161516 | 69 | 90 | 0.0 | 2.0 | 0.00 | 0.96 | 0.96 | 80 | 1013.8 |
| 20260508161013 | 68 | 196 | 2.0 | 2.0 | 0.00 | 0.96 | 0.96 | 80 | 1013.9 |
| 20260508160511 | 68 | 200 | 0.0 | 2.0 | 0.00 | 0.96 | 0.96 | 81 | 1014.1 |
| 20260508160008 | 66 | 165 | 0.0 | 3.0 | 0.00 | 0.96 | 0.96 | 84 | 1014.0 |
| 20260508155505 | 65 | 203 | 0.0 | 2.0 | 0.00 | 0.96 | 0.96 | 89 | 1014.0 |
| 20260508155002 | 64 | 212 | 0.0 | 0.0 | 0.00 | 0.96 | 0.96 | 93 | 1014.2 |
| 20260508154500 | 64 | 180 | 0.0 | 2.0 | 0.00 | 0.96 | 0.96 | 95 | 1014.2 |
| 20260508153955 | 62 | 188 | 0.0 | 2.0 | 0.00 | 0.96 | 0.96 | 97 | 1014.0 |
| 20260508153452 | 63 | 77 | 0.0 | 2.0 | 0.00 | 0.96 | 0.96 | 98 | 1014.2 |
| 20260508152949 | 63 | 194 | 1.0 | 1.0 | 0.00 | 0.96 | 0.96 | 98 | 1014.2 |
| 20260508152446 | 63 | 343 | 0.0 | 3.0 | 0.00 | 0.96 | 0.96 | 99 | 1014.3 |
| 20260508151942 | 63 | 97 | 0.0 | 1.0 | 0.00 | 0.96 | 0.96 | 99 | 1014.2 |
| 20260508151439 | 62 | 270 | 0.0 | 0.0 | 0.00 | 0.96 | 0.96 | 99 | 1014.5 |
| 20260508150935 | 61 | 270 | 0.0 | 3.0 | 0.00 | 0.96 | 0.96 | 99 | 1014.4 |
| 20260508150432 | 62 | 0 | 0.0 | 1.0 | 0.00 | 0.96 | 0.96 | 99 | 1014.8 |
| 20260508145928 | 62 | 180 | 0.0 | 0.0 | 0.00 | 0.96 | 0.96 | 99 | 1014.8 |
| 20260508145425 | 62 | 109 | 0.0 | 1.0 | 0.00 | 0.96 | 0.96 | 99 | 1014.5 |
| 20260508144921 | 62 | 180 | 0.0 | 0.0 | 0.00 | 0.96 | 0.96 | 99 | 1014.5 |
| 20260508144419 | 62 | 240 | 0.0 | 2.0 | 0.00 | 0.96 | 0.96 | 99 | 1014.5 |
| 20260508143917 | 62 | 18 | 0.0 | 1.0 | 0.00 | 0.96 | 0.96 | 99 | 1014.7 |
| 20260508143414 | 63 | 99 | 0.0 | 0.0 | 0.00 | 0.96 | 0.96 | 99 | 1014.5 |
| 20260508142910 | 62 | 99 | 0.0 | 0.0 | 0.00 | 0.96 | 0.96 | 99 | 1014.8 |
| 20260508142408 | 62 | 173 | 0.0 | 0.0 | 0.00 | 0.96 | 0.96 | 99 | 1014.6 |
| 20260508141903 | 62 | 90 | 0.0 | 1.0 | 0.00 | 0.96 | 0.96 | 99 | 1014.8 |
| 20260508141400 | 62 | 98 | 0.0 | 0.0 | 0.00 | 0.96 | 0.96 | 99 | 1014.9 |
| 20260508140858 | 61 | 90 | 0.0 | 0.0 | 0.00 | 0.96 | 0.96 | 99 | 1014.8 |
| 20260508140355 | 61 | 172 | 0.0 | 1.0 | 0.00 | 0.96 | 0.96 | 99 | 1014.9 |
| 20260508135850 | 62 | 106 | 0.0 | 1.0 | 0.00 | 0.96 | 0.96 | 99 | 1014.9 |
| 20260508135347 | 62 | 262 | 0.0 | 1.0 | 0.00 | 0.96 | 0.96 | 99 | 1014.8 |
| 20260508134843 | 62 | 106 | 1.0 | 1.0 | 0.00 | 0.96 | 0.96 | 99 | 1014.8 |
| 20260508134340 | 62 | 81 | 0.0 | 1.0 | 0.00 | 0.96 | 0.96 | 99 | 1014.9 |
| 20260508133836 | 62 | 254 | 0.0 | 0.0 | 0.00 | 0.96 | 0.96 | 99 | 1014.9 |
| 20260508133335 | 61 | 270 | 0.0 | 1.0 | 0.00 | 0.96 | 0.96 | 99 | 1014.5 |
| 20260508132831 | 61 | 255 | 0.0 | 2.0 | 0.00 | 0.96 | 0.96 | 99 | 1014.6 |
| 20260508132329 | 62 | 180 | 0.0 | 1.0 | 0.00 | 0.96 | 0.96 | 99 | 1014.5 |
| 20260508131826 | 62 | 180 | 0.0 | 0.0 | 0.00 | 0.96 | 0.96 | 99 | 1014.6 |
| 20260508131321 | 61 | 180 | 0.0 | 1.0 | 0.00 | 0.96 | 0.96 | 99 | 1014.6 |
| 20260508130818 | 61 | 180 | 0.0 | 1.0 | 0.00 | 0.96 | 0.96 | 99 | 1014.4 |
| 20260508130315 | 60 | 180 | 0.0 | 0.0 | 0.00 | 0.96 | 0.96 | 99 | 1014.8 |
| 20260508125811 | 60 | 180 | 0.0 | 1.0 | 0.00 | 0.96 | 0.96 | 99 | 1014.9 |
| 20260508125308 | 60 | 270 | 0.0 | 0.0 | 0.02 | 0.96 | 0.96 | 99 | 1015.1 |
| 20260508124806 | 60 | 270 | 0.0 | 0.0 | 0.00 | 0.96 | 0.96 | 99 | 1015.0 |
| 20260508124302 | 60 | 194 | 0.0 | 1.0 | 0.00 | 0.96 | 0.96 | 99 | 1014.8 |
| 20260508123801 | 60 | 173 | 0.0 | 1.0 | 0.05 | 0.96 | 0.96 | 99 | 1014.8 |
| 20260508123258 | 59 | 203 | 0.0 | 0.0 | 0.14 | 0.96 | 0.96 | 99 | 1014.8 |
| 20260508122754 | 59 | 203 | 0.0 | 0.0 | 0.07 | 0.94 | 0.94 | 99 | 1015.1 |
| 20260508122251 | 60 | 188 | 0.0 | 0.0 | 0.17 | 0.93 | 0.93 | 99 | 1014.7 |
| 20260508121749 | 59 | 188 | 0.0 | 0.0 | 0.64 | 0.93 | 0.93 | 99 | 1014.7 |
| 20260508121248 | 60 | 180 | 0.0 | 2.0 | 0.33 | 0.87 | 0.87 | 99 | 1014.7 |
| 20260508120744 | 60 | 234 | 0.0 | 2.0 | 0.02 | 0.82 | 0.82 | 99 | 1015.7 |
| 20260508120243 | 60 | 264 | 2.0 | 2.0 | 0.00 | 0.81 | 0.81 | 99 | 1015.3 |
| 20260508115740 | 60 | 90 | 0.0 | 2.0 | 0.00 | 0.81 | 0.81 | 99 | 1014.4 |
| 20260508115237 | 60 | 188 | 0.0 | 1.0 | 0.00 | 0.81 | 0.81 | 99 | 1014.9 |
| 20260508114733 | 60 | 10 | 0.0 | 2.0 | 0.00 | 0.81 | 0.81 | 99 | 1014.9 |
| 20260508114230 | 60 | 188 | 0.0 | 0.0 | 0.00 | 0.81 | 0.81 | 99 | 1014.9 |
| 20260508113727 | 60 | 188 | 0.0 | 1.0 | 0.00 | 0.81 | 0.81 | 99 | 1015.2 |
| 20260508113225 | 60 | 180 | 0.0 | 0.0 | 0.00 | 0.81 | 0.81 | 99 | 1014.9 |
| 20260508112721 | 60 | 180 | 0.0 | 0.0 | 0.00 | 0.81 | 0.81 | 99 | 1015.1 |
| 20260508112218 | 60 | 188 | 0.0 | 0.0 | 0.00 | 0.81 | 0.81 | 99 | 1015.0 |
| 20260508111715 | 60 | 180 | 0.0 | 1.0 | 0.00 | 0.81 | 0.81 | 99 | 1014.5 |
| 20260508111213 | 60 | 188 | 0.0 | 0.0 | 0.00 | 0.81 | 0.81 | 99 | 1014.5 |
| 20260508110709 | 60 | 188 | 0.0 | 0.0 | 0.00 | 0.81 | 0.81 | 99 | 1014.7 |
| 20260508110206 | 60 | 188 | 0.0 | 0.0 | 0.02 | 0.81 | 0.81 | 99 | 1014.4 |
| 20260508105706 | 60 | 188 | 0.0 | 0.0 | 0.02 | 0.81 | 0.81 | 99 | 1014.5 |
| 20260508105203 | 60 | 180 | 0.0 | 1.0 | 0.94 | 0.81 | 0.81 | 99 | 1014.5 |
| 20260508104701 | 60 | 74 | 0.0 | 1.0 | 1.13 | 0.77 | 0.77 | 99 | 1014.4 |
| 20260508104157 | 60 | 172 | 0.0 | 0.0 | 1.13 | 0.63 | 0.63 | 99 | 1014.6 |
| 20260508103655 | 60 | 195 | 0.0 | 2.0 | 0.92 | 0.56 | 0.56 | 99 | 1014.8 |
| 20260508103152 | 60 | 180 | 0.0 | 2.0 | 0.12 | 0.42 | 0.42 | 99 | 1015.3 |
| 20260508102649 | 60 | 0 | 0.0 | 2.0 | 0.00 | 0.41 | 0.41 | 99 | 1016.2 |
| 20260508102147 | 60 | 270 | 0.0 | 2.0 | 0.00 | 0.41 | 0.41 | 98 | 1014.9 |
| 20260508101644 | 60 | 173 | 0.0 | 0.0 | 0.00 | 0.41 | 0.41 | 99 | 1014.4 |
| 20260508101141 | 60 | 157 | 0.0 | 1.0 | 0.00 | 0.41 | 0.41 | 99 | 1014.1 |
| 20260508100638 | 60 | 246 | 0.0 | 0.0 | 0.00 | 0.41 | 0.41 | 98 | 1014.3 |
| 20260508100137 | 60 | 246 | 0.0 | 0.0 | 0.05 | 0.41 | 0.41 | 98 | 1014.4 |
| 20260508095633 | 60 | 195 | 0.0 | 1.0 | 0.85 | 0.41 | 0.41 | 98 | 1014.1 |
| 20260508095130 | 60 | 180 | 1.0 | 2.0 | 0.73 | 0.39 | 0.39 | 98 | 1013.8 |
| 20260508094627 | 60 | 263 | 0.0 | 2.0 | 0.00 | 0.26 | 0.26 | 98 | 1014.6 |
| 20260508094123 | 61 | 172 | 0.0 | 0.0 | 0.00 | 0.26 | 0.26 | 98 | 1013.9 |
| 20260508093621 | 60 | 172 | 0.0 | 0.0 | 0.00 | 0.26 | 0.26 | 98 | 1014.2 |
| 20260508093118 | 60 | 172 | 0.0 | 0.0 | 0.00 | 0.26 | 0.26 | 98 | 1014.3 |
| 20260508092616 | 60 | 172 | 0.0 | 0.0 | 0.00 | 0.26 | 0.26 | 98 | 1014.3 |
| 20260508092114 | 60 | 180 | 0.0 | 0.0 | 0.00 | 0.26 | 0.26 | 98 | 1014.0 |
| 20260508091611 | 60 | 180 | 0.0 | 0.0 | 0.00 | 0.26 | 0.26 | 98 | 1013.9 |
| 20260508091108 | 60 | 188 | 0.0 | 0.0 | 0.00 | 0.26 | 0.26 | 98 | 1014.4 |
| 20260508090606 | 60 | 188 | 0.0 | 0.0 | 0.00 | 0.26 | 0.26 | 98 | 1014.6 |
| 20260508090103 | 60 | 188 | 0.0 | 0.0 | 0.00 | 0.26 | 0.26 | 98 | 1014.5 |
| 20260508085559 | 60 | 188 | 0.0 | 0.0 | 0.00 | 0.26 | 0.26 | 98 | 1014.1 |
| 20260508085056 | 60 | 188 | 0.0 | 0.0 | 0.00 | 0.26 | 0.26 | 98 | 1014.3 |
| 20260508084553 | 60 | 90 | 0.0 | 0.0 | 0.00 | 0.26 | 0.26 | 98 | 1014.7 |
| 20260508084050 | 60 | 90 | 0.0 | 0.0 | 0.00 | 0.26 | 0.26 | 98 | 1014.5 |
| 20260508083547 | 60 | 173 | 0.0 | 0.0 | 0.02 | 0.26 | 0.26 | 98 | 1014.6 |
| 20260508083044 | 60 | 157 | 0.0 | 0.0 | 0.02 | 0.26 | 0.26 | 98 | 1014.7 |
| 20260508082540 | 60 | 186 | 0.0 | 0.0 | 0.00 | 0.26 | 0.26 | 97 | 1014.9 |
| 20260508082037 | 60 | 186 | 0.0 | 1.0 | 0.00 | 0.26 | 0.26 | 97 | 1015.0 |
| 20260508081535 | 60 | 253 | 0.0 | 2.0 | 0.00 | 0.26 | 0.26 | 97 | 1015.5 |
| 20260508081030 | 60 | 300 | 0.0 | 2.0 | 0.00 | 0.26 | 0.26 | 97 | 1014.9 |
| 20260508080529 | 60 | 160 | 0.0 | 2.0 | 0.00 | 0.26 | 0.26 | 97 | 1014.2 |
| 20260508080026 | 60 | 195 | 0.0 | 1.0 | 0.02 | 0.26 | 0.26 | 97 | 1014.5 |
| 20260508075522 | 60 | 160 | 0.0 | 1.0 | 0.02 | 0.26 | 0.26 | 97 | 1014.7 |
| 20260508075020 | 60 | 195 | 0.0 | 0.0 | 0.00 | 0.26 | 0.26 | 97 | 1015.4 |
| 20260508074518 | 60 | 172 | 0.0 | 1.0 | 0.21 | 0.26 | 0.26 | 96 | 1015.2 |
| 20260508074014 | 60 | 270 | 0.0 | 0.0 | 0.42 | 0.26 | 0.26 | 96 | 1015.8 |
| 20260508073511 | 60 | 157 | 0.0 | 0.0 | 0.71 | 0.21 | 0.21 | 95 | 1015.7 |
| 20260508073009 | 61 | 157 | 0.0 | 1.0 | 0.61 | 0.17 | 0.17 | 94 | 1015.8 |
| 20260508072504 | 61 | 54 | 0.0 | 2.0 | 0.54 | 0.09 | 0.09 | 90 | 1016.3 |
| 20260508072002 | 62 | 270 | 0.0 | 1.0 | 0.35 | 0.06 | 0.06 | 87 | 1016.1 |
| 20260508071500 | 63 | 81 | 0.0 | 0.0 | 0.00 | 0.00 | 0.00 | 81 | 1015.6 |
| 20260508070957 | 63 | 270 | 0.0 | 1.0 | 0.00 | 0.00 | 0.00 | 81 | 1016.0 |
| 20260508070455 | 63 | 254 | 0.0 | 0.0 | 0.00 | 0.00 | 0.00 | 80 | 1015.4 |
| 20260508065953 | 63 | 254 | 0.0 | 1.0 | 0.00 | 0.00 | 0.00 | 81 | 1015.6 |
| 20260508065450 | 63 | 90 | 0.0 | 0.0 | 0.00 | 0.00 | 0.00 | 80 | 1015.4 |
| 20260508064948 | 63 | 81 | 0.0 | 0.0 | 0.00 | 0.00 | 0.00 | 80 | 1015.6 |
| 20260508064445 | 62 | 90 | 1.0 | 1.0 | 0.00 | 0.00 | 0.00 | 80 | 1015.7 |
| 20260508063943 | 62 | 74 | 0.0 | 0.0 | 0.00 | 0.00 | 0.00 | 81 | 1015.6 |
| 20260508063440 | 62 | 74 | 0.0 | 0.0 | 0.00 | 0.00 | 0.00 | 81 | 1015.6 |
| 20260508062938 | 62 | 74 | 0.0 | 0.0 | 0.00 | 0.00 | 0.00 | 80 | 1015.9 |
| 20260508062435 | 62 | 74 | 0.0 | 1.0 | 0.00 | 0.00 | 0.00 | 80 | 1015.7 |
| 20260508061932 | 62 | 81 | 0.0 | 0.0 | 0.00 | 0.00 | 0.00 | 80 | 1015.9 |
| 20260508061430 | 62 | 81 | 0.0 | 0.0 | 0.00 | 0.00 | 0.00 | 81 | 1016.3 |
| 20260508060926 | 62 | 81 | 0.0 | 0.0 | 0.00 | 0.00 | 0.00 | 81 | 1016.3 |
| 20260508060423 | 62 | 81 | 0.0 | 0.0 | 0.00 | 0.00 | 0.00 | 81 | 1016.1 |
| 20260508055919 | 62 | 81 | 0.0 | 0.0 | 0.00 | 0.00 | 0.00 | 81 | 1015.9 |
| 20260508055416 | 61 | 286 | 0.0 | 0.0 | 0.00 | 0.00 | 0.00 | 81 | 1015.9 |
| 20260508054912 | 61 | 286 | 0.0 | 1.0 | 0.00 | 0.00 | 0.00 | 80 | 1016.1 |
| 20260508054410 | 62 | 90 | 0.0 | 0.0 | 0.00 | 0.00 | 0.00 | 79 | 1016.1 |
| 20260508053907 | 62 | 90 | 0.0 | 0.0 | 0.00 | 0.00 | 0.00 | 79 | 1015.9 |
| 20260508053404 | 62 | 90 | 0.0 | 0.0 | 0.00 | 0.00 | 0.00 | 79 | 1015.9 |
| 20260508052901 | 62 | 90 | 0.0 | 0.0 | 0.00 | 0.00 | 0.00 | 79 | 1015.8 |
| 20260508052359 | 62 | 81 | 0.0 | 0.0 | 0.00 | 0.00 | 0.00 | 78 | 1015.7 |
| 20260508051855 | 62 | 81 | 0.0 | 0.0 | 0.00 | 0.00 | 0.00 | 78 | 1016.1 |
| 20260508051350 | 62 | 81 | 0.0 | 0.0 | 0.00 | 0.00 | 0.00 | 78 | 1016.1 |
| 20260508050847 | 62 | 81 | 0.0 | 0.0 | 0.00 | 0.00 | 0.00 | 78 | 1015.8 |
| 20260508050344 | 62 | 81 | 0.0 | 0.0 | 0.00 | 0.00 | 0.00 | 78 | 1016.0 |
| 20260508045840 | 62 | 81 | 0.0 | 0.0 | 0.00 | 0.00 | 0.00 | 78 | 1016.1 |
| 20260508045337 | 62 | 81 | 0.0 | 0.0 | 0.00 | 0.00 | 0.00 | 78 | 1016.1 |
| 20260508044835 | 62 | 81 | 0.0 | 0.0 | 0.00 | 0.00 | 0.00 | 78 | 1016.1 |
| 20260508044331 | 62 | 81 | 0.0 | 0.0 | 0.00 | 0.00 | 0.00 | 78 | 1015.9 |
| 20260508043827 | 62 | 81 | 0.0 | 0.0 | 0.00 | 0.00 | 0.00 | 77 | 1016.1 |
| 20260508043325 | 62 | 81 | 0.0 | 0.0 | 0.00 | 0.00 | 0.00 | 77 | 1016.1 |
| 20260508042821 | 62 | 81 | 0.0 | 0.0 | 0.00 | 0.00 | 0.00 | 77 | 1016.0 |
| 20260508042319 | 62 | 81 | 0.0 | 0.0 | 0.00 | 0.00 | 0.00 | 77 | 1016.0 |
| 20260508041815 | 62 | 0 | 0.0 | 0.0 | 0.00 | 0.00 | 0.00 | 77 | 1015.8 |
| 20260508041312 | 62 | 0 | 0.0 | 0.0 | 0.00 | 0.00 | 0.00 | 76 | 1015.9 |
| 20260508040809 | 62 | 0 | 0.0 | 0.0 | 0.00 | 0.00 | 0.00 | 76 | 1016.1 |
| 20260508040306 | 62 | 0 | 0.0 | 0.0 | 0.00 | 0.00 | 0.00 | 76 | 1016.0 |
| 20260508035803 | 62 | 0 | 0.0 | 0.0 | 0.00 | 0.00 | 0.00 | 76 | 1016.0 |
| 20260508035301 | 62 | 0 | 0.0 | 0.0 | 0.00 | 0.00 | 0.00 | 75 | 1016.1 |
| 20260508034757 | 62 | 0 | 0.0 | 0.0 | 0.00 | 0.00 | 0.00 | 75 | 1015.9 |
| 20260508034254 | 62 | 0 | 0.0 | 0.0 | 0.00 | 0.00 | 0.00 | 75 | 1015.9 |
| 20260508033751 | 62 | 0 | 0.0 | 0.0 | 0.00 | 0.00 | 0.00 | 74 | 1015.7 |
| 20260508033250 | 62 | 0 | 0.0 | 0.0 | 0.00 | 0.00 | 0.00 | 74 | 1015.6 |
| 20260508032747 | 62 | 0 | 0.0 | 0.0 | 0.00 | 0.00 | 0.00 | 75 | 1015.6 |
| 20260508032244 | 62 | 0 | 0.0 | 0.0 | 0.00 | 0.00 | 0.00 | 73 | 1015.8 |
| 20260508031741 | 63 | 0 | 0.0 | 0.0 | 0.00 | 0.00 | 0.00 | 73 | 1016.0 |
| 20260508031237 | 63 | 0 | 0.0 | 0.0 | 0.00 | 0.00 | 0.00 | 73 | 1015.8 |
| 20260508030734 | 63 | 0 | 0.0 | 0.0 | 0.00 | 0.00 | 0.00 | 72 | 1015.7 |
| 20260508030231 | 63 | 0 | 0.0 | 0.0 | 0.00 | 0.00 | 0.00 | 72 | 1015.7 |
| 20260508025727 | 63 | 0 | 0.0 | 0.0 | 0.00 | 0.00 | 0.00 | 72 | 1015.9 |
| 20260508025224 | 63 | 0 | 0.0 | 0.0 | 0.00 | 0.00 | 0.00 | 72 | 1015.6 |
| 20260508024720 | 64 | 0 | 0.0 | 0.0 | 0.00 | 0.00 | 0.00 | 71 | 1015.4 |
| 20260508024218 | 64 | 0 | 0.0 | 0.0 | 0.00 | 0.00 | 0.00 | 70 | 1015.6 |
| 20260508023714 | 64 | 0 | 0.0 | 0.0 | 0.00 | 0.00 | 0.00 | 70 | 1015.3 |
| 20260508023212 | 64 | 0 | 0.0 | 0.0 | 0.00 | 0.00 | 0.00 | 69 | 1015.2 |
| 20260508022707 | 64 | 0 | 0.0 | 0.0 | 0.00 | 0.00 | 0.00 | 69 | 1015.1 |
| 20260508022204 | 65 | 0 | 0.0 | 0.0 | 0.00 | 0.00 | 0.00 | 68 | 1015.2 |
| 20260508021700 | 65 | 0 | 0.0 | 0.0 | 0.00 | 0.00 | 0.00 | 68 | 1015.3 |
| 20260508021156 | 65 | 0 | 0.0 | 0.0 | 0.00 | 0.00 | 0.00 | 68 | 1015.4 |
| 20260508020654 | 65 | 0 | 0.0 | 0.0 | 0.00 | 0.00 | 0.00 | 68 | 1015.1 |
| 20260508020151 | 65 | 0 | 0.0 | 0.0 | 0.00 | 0.00 | 0.00 | 68 | 1015.2 |
| 20260508015648 | 66 | 0 | 0.0 | 0.0 | 0.00 | 0.00 | 0.00 | 67 | 1014.9 |
| 20260508015145 | 66 | 0 | 0.0 | 0.0 | 0.00 | 0.00 | 0.00 | 66 | 1014.9 |
| 20260508014642 | 66 | 0 | 0.0 | 0.0 | 0.00 | 0.00 | 0.00 | 65 | 1015.2 |
| 20260508014138 | 67 | 0 | 0.0 | 0.0 | 0.00 | 0.00 | 0.00 | 64 | 1015.0 |
| 20260508013634 | 67 | 192 | 0.0 | 0.0 | 0.00 | 0.00 | 0.00 | 63 | 1015.1 |
| 20260508013131 | 67 | 192 | 0.0 | 0.0 | 0.00 | 0.00 | 0.00 | 63 | 1015.0 |
| 20260508012629 | 68 | 192 | 0.0 | 1.0 | 0.00 | 0.00 | 0.00 | 62 | 1015.1 |
| 20260508012126 | 68 | 180 | 0.0 | 1.0 | 0.00 | 0.00 | 0.00 | 62 | 1015.1 |
| 20260508011624 | 68 | 77 | 1.0 | 1.0 | 0.00 | 0.00 | 0.00 | 62 | 1014.9 |
| 20260508011121 | 68 | 352 | 0.0 | 1.0 | 0.00 | 0.00 | 0.00 | 62 | 1015.0 |
| 20260508010618 | 68 | 81 | 0.0 | 1.0 | 0.00 | 0.00 | 0.00 | 61 | 1015.1 |
| 20260508010116 | 68 | 277 | 0.0 | 1.0 | 0.00 | 0.00 | 0.00 | 61 | 1015.1 |
| 20260508005612 | 69 | 90 | 0.0 | 2.0 | 0.00 | 0.00 | 0.00 | 61 | 1015.1 |
| 20260508005108 | 69 | 261 | 0.0 | 2.0 | 0.00 | 0.00 | 0.00 | 60 | 1015.1 |
| 20260508004605 | 69 | 195 | 0.0 | 1.0 | 0.00 | 0.00 | 0.00 | 60 | 1015.1 |
| 20260508004101 | 69 | 82 | 1.0 | 2.0 | 0.00 | 0.00 | 0.00 | 60 | 1015.0 |
| 20260508003558 | 70 | 283 | 0.0 | 2.0 | 0.00 | 0.00 | 0.00 | 60 | 1014.8 |
| 20260508003056 | 70 | 180 | 0.0 | 2.0 | 0.00 | 0.00 | 0.00 | 59 | 1015.0 |
| 20260508002552 | 70 | 281 | 0.0 | 2.0 | 0.00 | 0.00 | 0.00 | 58 | 1015.0 |
| 20260508002049 | 71 | 172 | 0.0 | 3.0 | 0.00 | 0.00 | 0.00 | 58 | 1015.2 |
| 20260508001544 | 71 | 306 | 1.0 | 2.0 | 0.00 | 0.00 | 0.00 | 57 | 1014.9 |
| 20260508001041 | 71 | 90 | 0.0 | 4.0 | 0.00 | 0.00 | 0.00 | 57 | 1015.2 |
| 20260508000537 | 71 | 286 | 0.0 | 1.0 | 0.00 | 0.00 | 0.00 | 57 | 1015.2 |
| 20260508000035 | 72 | 184 | 0.0 | 3.0 | 0.00 | 0.00 | 0.00 | 56 | 1015.1 |
| 20260507235531 | 72 | 279 | 0.0 | 3.0 | 0.00 | 0.00 | 0.00 | 56 | 1015.4 |
| 20260507235029 | 73 | 196 | 2.0 | 2.0 | 0.00 | 0.00 | 0.00 | 54 | 1015.3 |
| 20260507234525 | 72 | 203 | 3.0 | 3.0 | 0.00 | 0.00 | 0.00 | 54 | 1015.1 |
| 20260507234021 | 73 | 66 | 1.0 | 4.0 | 0.00 | 0.00 | 0.00 | 54 | 1015.2 |
| 20260507233518 | 73 | 196 | 2.0 | 3.0 | 0.00 | 0.00 | 0.00 | 53 | 1015.2 |
| 20260507233017 | 73 | 270 | 0.0 | 3.0 | 0.00 | 0.00 | 0.00 | 54 | 1015.1 |
| 20260507232513 | 73 | 81 | 0.0 | 2.0 | 0.00 | 0.00 | 0.00 | 55 | 1015.1 |
| 20260507232010 | 73 | 172 | 0.0 | 3.0 | 0.00 | 0.00 | 0.00 | 54 | 1015.1 |
| 20260507231506 | 74 | 111 | 1.0 | 3.0 | 0.00 | 0.00 | 0.00 | 54 | 1015.1 |
| 20260507231004 | 74 | 243 | 2.0 | 3.0 | 0.00 | 0.00 | 0.00 | 53 | 1015.2 |
| 20260507230501 | 74 | 200 | 0.0 | 1.0 | 0.00 | 0.00 | 0.00 | 51 | 1015.1 |
| 20260507225955 | 75 | 270 | 0.0 | 1.0 | 0.00 | 0.00 | 0.00 | 52 | 1015.3 |
| 20260507225452 | 75 | 66 | 0.0 | 0.0 | 0.00 | 0.00 | 0.00 | 49 | 1015.2 |
| 20260507224948 | 74 | 164 | 0.0 | 2.0 | 0.00 | 0.00 | 0.00 | 49 | 1015.3 |
| 20260507224444 | 74 | 165 | 0.0 | 3.0 | 0.00 | 0.00 | 0.00 | 49 | 1015.2 |
| 20260507223941 | 74 | 270 | 0.0 | 0.0 | 0.00 | 0.00 | 0.00 | 55 | 1015.1 |
| 20260507223437 | 73 | 270 | 0.0 | 0.0 | 0.00 | 0.00 | 0.00 | 53 | 1015.3 |
| 20260507222934 | 73 | 254 | 0.0 | 1.0 | 0.00 | 0.00 | 0.00 | 51 | 1015.3 |
| 20260507222431 | 74 | 270 | 0.0 | 2.0 | 0.00 | 0.00 | 0.00 | 49 | 1015.5 |
| 20260507221927 | 74 | 270 | 0.0 | 0.0 | 0.00 | 0.00 | 0.00 | 47 | 1015.2 |
| 20260507221424 | 74 | 90 | 0.0 | 1.0 | 0.00 | 0.00 | 0.00 | 50 | 1015.4 |
| 20260507220920 | 74 | 95 | 0.0 | 2.0 | 0.00 | 0.00 | 0.00 | 50 | 1015.5 |
| 20260507220419 | 74 | 257 | 0.0 | 1.0 | 0.00 | 0.00 | 0.00 | 49 | 1015.6 |
| 20260507215915 | 74 | 261 | 0.0 | 1.0 | 0.00 | 0.00 | 0.00 | 47 | 1015.5 |
| 20260507215412 | 75 | 278 | 0.0 | 1.0 | 0.00 | 0.00 | 0.00 | 49 | 1015.4 |
| 20260507214909 | 75 | 261 | 0.0 | 2.0 | 0.00 | 0.00 | 0.00 | 49 | 1015.6 |
| 20260507214407 | 75 | 90 | 0.0 | 2.0 | 0.00 | 0.00 | 0.00 | 45 | 1015.9 |
| 20260507213902 | 76 | 97 | 0.0 | 1.0 | 0.00 | 0.00 | 0.00 | 45 | 1015.7 |
| 20260507213358 | 75 | 262 | 0.0 | 2.0 | 0.00 | 0.00 | 0.00 | 46 | 1015.8 |
| 20260507212856 | 76 | 254 | 0.0 | 1.0 | 0.00 | 0.00 | 0.00 | 46 | 1015.8 |
| 20260507212351 | 75 | 194 | 0.0 | 1.0 | 0.00 | 0.00 | 0.00 | 47 | 1015.7 |
| 20260507211848 | 75 | 74 | 0.0 | 3.0 | 0.00 | 0.00 | 0.00 | 45 | 1015.7 |
| 20260507211345 | 75 | 99 | 0.0 | 1.0 | 0.00 | 0.00 | 0.00 | 47 | 1016.1 |
| 20260507210842 | 75 | 65 | 2.0 | 3.0 | 0.00 | 0.00 | 0.00 | 45 | 1016.1 |
| 20260507210339 | 74 | 83 | 1.0 | 2.0 | 0.00 | 0.00 | 0.00 | 45 | 1016.2 |
| 20260507205835 | 74 | 180 | 1.0 | 4.0 | 0.00 | 0.00 | 0.00 | 47 | 1016.1 |
| 20260507205332 | 75 | 19 | 0.0 | 3.0 | 0.00 | 0.00 | 0.00 | 46 | 1016.2 |
| 20260507204828 | 75 | 90 | 0.0 | 5.0 | 0.00 | 0.00 | 0.00 | 45 | 1016.2 |
| 20260507204326 | 75 | 90 | 1.0 | 5.0 | 0.00 | 0.00 | 0.00 | 46 | 1016.0 |
| 20260507203823 | 75 | 184 | 0.0 | 2.0 | 0.00 | 0.00 | 0.00 | 45 | 1016.1 |
| 20260507203321 | 75 | 5 | 0.0 | 3.0 | 0.00 | 0.00 | 0.00 | 45 | 1015.9 |